Location: Dortmund
(51.5019°N, 7.6520°E)
Time: 22:46:40
(UTC+02:00)

ISS - Visible Passes

Search period start: 25 September 2020 00:00
Search period end: 05 October 2020 00:00
Orbit: 419 x 420 km, 51.6° (Epoch: 26 September)

Date Brightness Start Highest point End Pass type
(mag) Time Alt. Az. Time Alt. Az. Time Alt. Az.
25 Sep -3.8 20:57:42 10° W 21:01:05 86° N 21:02:08 41° E visible
25 Sep -0.7 22:34:33 10° W 22:35:06 14° W 22:35:06 14° W visible
26 Sep -3.8 20:10:18 10° W 20:13:42 89° SSE 20:16:31 14° E visible
26 Sep -2.5 21:47:09 10° W 21:49:28 41° W 21:49:28 41° W visible
27 Sep -3.8 20:59:44 10° W 21:03:08 88° S 21:03:50 54° E visible
27 Sep -0.4 22:36:38 10° W 22:36:47 11° W 22:36:47 11° W visible
28 Sep -3.8 20:12:20 10° W 20:15:43 86° N 20:18:11 17° E visible
28 Sep -2.0 21:49:10 10° W 21:51:09 30° W 21:51:09 30° W visible
29 Sep -3.7 21:01:44 10° W 21:05:05 64° SSW 21:05:30 56° SSE visible
30 Sep -3.7 20:14:18 10° W 20:17:41 78° S 20:19:53 20° ESE visible
30 Sep -1.4 21:51:19 10° W 21:52:51 20° WSW 21:52:51 20° WSW visible
01 Oct -2.8 21:03:45 10° W 21:06:53 36° SSW 21:07:15 35° S visible
02 Oct -3.1 20:16:15 10° W 20:19:32 49° SSW 20:21:42 19° SE visible
02 Oct -0.8 21:54:03 10° WSW 21:54:40 12° WSW 21:54:40 12° WSW visible
03 Oct -3.4 19:28:45 10° W 19:32:07 63° SSW 19:35:27 10° ESE visible
03 Oct -1.6 21:06:02 10° W 21:08:30 19° SW 21:09:10 18° SSW visible
04 Oct -2.0 20:18:17 10° W 20:21:11 26° SSW 20:23:45 12° SSE visible
